Regional Weather Roundup
Issued by NWS Little Rock, AR

Home | Current Version | Previous Version | Graphics & Text | Print | Product List | Glossary On
Versions: 1 2 3 4 5 6 7 8 9 10 11 12 13 14 15 16 17 18 19 20 21 22 23 24 25 26 27 28 29 30 31 32 33 34 35 36 37 38 39 40 41 42 43 44 45 46 47 48 49 50
594
ASUS44 KLZK 300105
RWRLZK

WEATHER ROUNDUP FOR ARKANSAS
NATIONAL WEATHER SERVICE LITTLE ROCK AR
800 PM CDT THU SEP 29 2016

NOTE: "FAIR" INDICATES FEW OR NO CLOUDS BELOW 12,000 FEET WITH NO
SIGNIFICANT WEATHER AND/OR OBSTRUCTIONS TO VISIBILITY.

ARZ001-003-010-029-300200-
NORTHWEST ARKANSAS

CITY           SKY/WX    TMP DP  RH WIND       PRES   REMARKS
FAYETTEVILLE   CLEAR     60  49  66 N5        30.24S
FORT SMITH     CLEAR     67  47  48 N7        30.20S
HARRISON       CLEAR     61  48  62 NW5       30.23R
BENTONVILLE    CLEAR     63  45  51 N3        30.26S
ROGERS         CLEAR     60  49  66 NW3       30.26S
SILOAM SPGS    CLEAR     61  43  51 N5        30.26S
HIGHFILL       CLEAR     60  49  66 N6        30.24F
SPRINGDALE     CLEAR     63  48  59 N5        30.26S
$$

ARZ004-005-016-300200-
NORTH CENTRAL ARKANSAS

CITY           SKY/WX    TMP DP  RH WIND       PRES   REMARKS
BATESVILLE     CLEAR     64  50  59 CALM      30.17S
FLIPPIN        CLEAR     64  46  52 NW3       30.18S
MTN HOME       CLEAR     60  51  72 CALM      30.20R
$$

ARZ040-041-300200-
WEST CENTRAL ARKANSAS

CITY           SKY/WX    TMP DP  RH WIND       PRES   REMARKS
MENA           CLEAR     59  55  88 CALM      30.21S
MOUNT IDA      CLEAR     60  55  83 CALM      30.17S
$$

ARZ009-017-025-026-028-300200-
NORTHEAST ARKANSAS

CITY           SKY/WX    TMP DP  RH WIND       PRES   REMARKS
CORNING          N/A     66  55  68 NE5       30.17R
JONESBORO      MOCLDY    67  55  65 NE5       30.15S
WALNUT RIDGE   PTCLDY    64  54  68 NE7       30.16R
BLYTHEVILLE    CLOUDY    66  53  63 N10       30.15S
$$

ARZ022-023-033-042-044-300200-
CENTRAL ARKANSAS

CITY           SKY/WX    TMP DP  RH WIND       PRES   REMARKS
LITTLE ROCK    CLEAR     70  50  49 NW6       30.16S
N LITTLE ROCK    N/A     67  52  57 N3        30.15S
JACKSONVILLE   CLEAR     64  54  69 CALM      30.16R
SEARCY         CLEAR     63  55  75 W3        30.17R
HOT SPRINGS    CLEAR     68  50  52 CALM      30.18S
RUSSELLVILLE   CLEAR     62  54  74 CALM      30.17S
$$

ARZ036-300200-
EAST ARKANSAS

CITY           SKY/WX    TMP DP  RH WIND       PRES   REMARKS
WEST MEMPHIS   CLEAR     66  52  60 NE8       30.14R
$$

ARZ050-053-066-070-073-300200-
SOUTHWEST ARKANSAS

CITY           SKY/WX    TMP DP  RH WIND       PRES   REMARKS
ARKADELPHIA    FAIR      59  57  93 CALM      30.18R
TEXARKANA      CLEAR     67  49  52 N5        30.18S
EL DORADO      CLEAR     61  55  81 CALM      30.18R
DE QUEEN       CLEAR     63  55  75 CALM      30.17S
$$

ARZ056-057-069-300200-
SOUTHEAST ARKANSAS

CITY           SKY/WX    TMP DP  RH WIND       PRES   REMARKS
PINE BLUFF     CLEAR     63  54  72 CALM      30.16R
STUTTGART      MOCLDY    66  48  52 NW7       30.16R
MONTICELLO     CLEAR     63  54  72 W3        30.16R

$$






USA.gov is the U.S. government's official web portal to all federal, state and local government web resources and services.